Theta_e
309 308 308 309 311 310 312 317 318 319 320 322 322 326 325 325 325 324 324 326 325 325 324 323 320 318 324 328 329 321 323 327 326 324 323 320 322 324 325 329 330 331 329 329 332
308 308 308 307 310 311 309 310 314 316 319 319 321 322 323 324 325 325 326 325 325 326 324 324 321 319 326 328 331 326 324 324 324 319 317 316 321 325 326 328 329 329 331 330 330
307 308 308 308 309 311 311 308 308 311 314 318 319 321 324 323 322 325 325 325 323 325 325 323 323 322 326 328 328 327 328 324 325 318 316 316 320 321 324 325 326 326 330 330 330
307 308 308 308 308 309 311 311 309 308 309 314 317 319 321 324 325 324 324 324 323 324 324 323 324 324 320 324 327 328 328 326 323 320 318 315 315 319 323 323 325 325 325 328 330
307 306 309 306 307 308 309 311 310 308 307 308 315 316 319 322 322 320 322 323 323 323 324 324 324 322 322 321 324 324 327 328 328 328 327 323 315 315 318 322 321 325 326 327 329
308 307 309 307 304 304 306 309 310 309 307 309 311 314 318 320 321 320 319 323 323 323 324 323 325 324 323 322 322 325 326 327 328 329 328 319 320 315 318 319 322 324 326 327 326
308 308 309 309 308 306 305 306 306 308 308 309 311 313 313 317 319 321 320 320 323 323 324 323 324 324 324 322 324 325 325 322 325 328 325 316 318 318 325 318 322 325 326 327 327
308 309 307 309 308 307 305 305 303 304 308 309 309 312 313 312 315 320 320 321 322 323 324 323 324 325 324 323 323 324 322 325 323 324 327 324 330 326 327 318 321 326 327 327 326
306 309 306 308 308 307 305 305 304 306 308 309 310 311 311 312 313 317 320 321 321 322 323 324 324 324 324 318 321 322 325 325 326 323 319 326 330 328 327 318 320 323 327 327 326
307 308 307 307 307 306 305 306 305 307 308 309 310 311 310 312 312 314 320 321 321 321 322 321 321 323 321 322 322 321 325 323 325 320 314 314 325 323 320 321 320 320 324 328 327
306 307 307 306 306 305 306 307 306 307 308 309 310 310 311 310 312 313 320 321 321 320 322 321 324 326 323 323 319 319 322 322 321 318 317 319 318 318 319 315 315 318 323 325 325
307 307 307 306 306 306 306 306 305 306 308 308 310 310 311 313 314 314 315 320 320 321 321 322 325 321 320 320 323 319 321 323 321 318 319 320 319 319 317 317 318 318 317 318 322
307 308 306 306 306 306 305 305 305 307 307 308 308 309 310 309 313 314 315 318 320 321 322 323 321 320 320 321 323 321 321 321 324 317 317 317 321 317 316 318 318 320 321 320 317
306 307 306 306 306 305 305 304 306 309 305 307 309 308 308 311 312 314 314 317 318 321 319 320 320 320 322 322 322 324 320 322 322 321 325 318 326 321 319 317 315 317 320 323 319
307 307 306 306 306 306 304 303 306 307 305 304 309 310 308 311 312 312 315 317 318 320 320 320 318 321 322 322 322 321 321 321 320 320 322 320 324 322 318 320 319 318 319 323 324
307 306 306 306 304 304 302 306 306 306 305 309 310 310 310 310 311 313 315 316 318 319 319 318 316 318 319 318 320 317 320 319 319 322 327 323 324 324 320 320 320 319 322 323 322
307 306 306 304 305 305 304 306 305 307 300 305 311 311 310 311 310 312 315 317 321 320 322 320 318 318 319 321 318 320 324 326 327 327 328 320 321 325 319 315 316 316 320 323 324
306 306 305 303 302 305 307 305 306 296 299 308 311 312 312 311 311 311 314 315 315 318 319 321 321 319 318 319 322 322 322 322 326 326 323 315 325 323 317 321 322 321 319 319 320
306 305 305 306 304 306 305 306 300 296 302 308 308 312 311 311 311 313 313 315 312 318 320 320 321 317 319 316 319 322 323 317 313 300 314 315 314 312 312 313 311 315 320 319 319
304 304 305 305 306 306 303 300 297 304 305 306 307 309 313 312 313 312 313 313 315 314 318 316 319 318 318 317 316 319 319 322 319 313 316 316 314 320 316 317 314 310 315 321 319
305 304 305 305 305 304 305 300 299 305 304 304 305 308 311 313 312 313 312 312 313 315 316 315 315 320 318 321 321 320 321 321 322 314 317 315 316 310 316 316 314 311 314 319 318
303 301 304 305 303 297 295 296 301 303 304 304 305 305 304 306 309 312 313 312 313 314 319 317 315 319 321 310 312 319 321 321 324 321 312 313 316 310 310 310 310 313 316 317 315
300 299 301 302 300 299 295 301 302 305 304 305 304 304 305 308 309 309 310 312 316 317 318 314 316 320 320 316 313 320 319 321 319 313 318 321 320 307 304 305 308 310 314 316 313
301 301 299 300 296 295 296 296 300 303 304 304 304 305 306 307 308 308 313 313 314 317 317 313 313 318 321 321 319 320 320 320 322 322 321 320 320 313 307 306 305 308 310 311 312
300 295 300 300 297 293 292 296 299 301 302 303 303 304 305 304 306 307 308 307 314 316 317 314 318 316 316 316 316 318 320 320 322 322 323 322 316 313 306 304 306 310 309 309 310
299 298 298 290 298 298 295 291 296 295 301 303 303 305 304 304 305 307 311 314 315 316 317 313 316 310 310 312 316 317 318 319 320 321 319 319 316 311 311 306 306 308 308 308 309
300 300 300 299 297 299 296 292 297 300 301 303 304 305 305 306 306 307 308 309 311 315 317 314 313 315 318 311 315 318 318 318 319 319 320 321 319 310 310 304 306 308 309 309 309
Wind_Speed
34 34 31 33 30 31 31 29 26 23 27 27 29 25 30 25 24 24 26 22 22 13 13 10 7 6 6 6 6 4 2 4 4 4 3 4 0 4 5 13 8 9 6 6 25
36 34 34 35 33 30 32 32 30 26 25 27 27 30 26 25 24 29 30 26 21 18 14 12 9 8 4 5 6 4 3 7 4 2 1 6 2 6 4 9 5 8 10 14 28
37 35 35 34 34 33 29 30 30 28 28 26 26 24 24 24 25 26 29 25 20 20 14 12 7 11 6 3 4 4 4 5 3 1 2 5 2 2 6 4 12 16 16 24 31
38 38 36 35 35 34 30 28 29 29 28 28 24 23 21 23 10 12 26 26 26 21 20 15 14 8 6 5 5 2 8 4 2 1 3 4 9 4 11 4 8 13 14 24 32
41 41 38 36 35 33 31 30 27 27 28 26 27 24 21 25 25 16 11 28 28 25 23 21 22 8 5 8 8 3 4 9 16 12 6 7 8 6 12 11 8 11 18 24 29
44 43 40 38 36 34 32 32 27 25 25 24 23 24 24 14 19 33 24 28 31 30 26 26 17 17 7 8 8 9 12 6 10 21 9 4 8 9 6 10 12 13 20 24 25
46 44 41 38 35 33 30 29 30 27 24 22 19 26 23 30 9 30 18 28 35 33 31 29 15 22 7 4 8 5 4 3 9 9 5 1 9 11 21 14 16 20 22 24 26
49 45 44 40 36 33 31 27 25 26 24 22 18 18 19 33 17 19 26 12 32 32 30 27 26 18 9 3 4 5 5 4 5 11 8 6 16 17 21 19 21 22 25 27 28
50 47 44 41 36 33 31 28 24 23 22 19 19 16 9 26 28 24 35 27 20 31 28 26 26 8 11 6 1 5 4 5 3 16 4 11 7 21 22 20 24 25 28 30 30
50 47 45 42 37 33 30 27 21 19 19 17 13 8 19 24 35 35 29 33 28 27 23 19 15 5 6 7 12 5 12 5 8 7 6 6 16 8 4 21 30 29 30 34 34
49 48 46 43 39 34 32 27 19 10 29 17 13 6 13 21 23 35 29 26 21 27 12 16 9 19 27 19 7 7 6 7 4 5 5 15 16 15 25 10 17 31 30 34 38
49 49 47 44 41 38 36 37 33 12 11 26 10 31 7 5 13 28 37 20 13 18 17 8 21 29 13 12 11 6 8 10 4 5 7 4 17 15 10 16 27 30 33 40 41
51 50 48 46 41 40 42 36 28 17 6 12 32 17 12 21 8 29 37 32 12 18 22 20 22 17 16 14 15 15 13 5 2 3 2 5 10 5 11 27 27 35 40 35 38
53 52 49 46 41 43 41 35 31 12 4 4 11 22 22 13 9 22 39 30 8 22 22 13 21 22 18 18 14 20 5 4 3 3 4 6 6 6 7 12 11 29 35 42 39
54 52 52 52 38 45 41 36 25 13 4 6 10 10 32 17 9 23 32 36 23 13 10 19 19 23 25 29 23 10 9 6 3 2 1 3 4 6 1 7 11 19 33 43 47
57 54 51 46 34 40 35 35 28 5 8 4 10 15 17 27 10 8 22 36 24 17 17 9 10 12 8 4 9 7 5 4 2 2 8 9 8 6 8 12 6 12 33 42 44
56 53 53 48 40 40 42 37 7 7 3 5 6 14 24 18 21 9 17 23 12 13 12 23 14 6 19 11 5 9 9 4 7 6 10 6 8 17 6 7 7 10 24 29 34
55 53 47 45 44 48 43 10 7 5 7 1 5 11 21 13 20 24 15 23 27 18 7 14 10 19 18 18 16 29 22 5 9 8 6 3 10 6 13 31 25 28 16 12 16
56 50 46 38 46 47 38 15 8 7 8 9 2 9 12 18 7 18 28 26 25 18 10 12 10 19 15 7 15 14 16 10 5 2 3 6 8 8 10 15 14 23 30 27 18
49 45 38 41 47 47 11 8 4 4 4 3 7 7 10 16 14 20 20 23 22 27 20 7 7 22 6 6 1 15 16 11 2 5 5 5 6 8 9 14 12 10 28 38 26
45 19 42 49 47 26 13 7 4 7 8 6 7 6 3 6 16 13 12 13 29 23 24 6 4 7 12 16 20 8 17 9 5 5 6 2 7 8 12 15 12 11 26 30 27
24 5 48 45 6 2 4 7 6 5 13 2 2 5 6 6 2 19 19 19 31 31 33 29 8 13 27 5 1 20 19 20 12 16 4 0 6 2 11 4 12 19 28 27 23
13 12 34 36 7 5 1 3 7 8 7 7 7 7 6 6 4 11 14 21 19 25 25 16 7 7 9 4 4 14 17 23 11 3 13 12 9 1 3 6 12 15 25 24 21
18 5 8 10 4 8 6 3 4 6 4 5 4 8 6 7 6 6 4 8 23 30 46 25 7 24 17 30 24 18 33 28 24 15 23 19 14 5 5 7 6 12 17 19 21
7 3 5 8 6 5 4 7 7 6 6 15 4 11 6 5 7 9 10 5 21 33 30 16 19 17 24 19 14 21 25 24 28 32 16 27 12 8 9 10 18 21 18 18 20
7 8 9 4 18 6 7 6 9 3 9 6 7 6 12 16 15 6 7 8 18 19 26 13 10 7 4 9 22 23 22 25 23 28 22 26 17 8 19 14 9 20 23 23 29
10 17 15 10 7 8 5 5 7 6 7 7 7 12 18 17 23 25 20 18 16 17 25 9 9 14 19 5 12 10 25 28 28 28 29 27 33 8 7 8 21 28 29 33 40
Wind_Direction
227 226 224 220 222 223 218 217 214 207 206 215 218 218 216 208 208 203 209 199 204 196 179 190 197 222 197 165 177 176 109 187 199 171 260 356 231 162 170 149 179 192 183 193 179
228 223 222 220 219 221 219 217 215 208 204 207 209 218 222 226 211 212 217 209 205 204 184 190 186 180 175 165 173 194 204 202 183 185 312 321 279 176 164 156 205 191 187 174 181
226 224 219 218 217 216 216 215 216 212 208 208 208 208 206 219 241 222 209 208 201 203 190 186 206 185 156 159 180 203 225 175 236 125 302 301 349 255 167 227 209 200 185 177 180
227 222 218 216 216 217 216 214 212 212 209 210 207 206 203 205 218 228 215 208 202 195 194 184 182 175 139 161 199 262 246 213 183 85 18 341 328 283 210 243 240 226 212 185 187
224 219 217 215 217 216 214 214 210 207 208 208 208 201 195 211 219 218 225 207 202 199 193 189 181 179 168 172 153 234 255 236 237 260 282 309 297 272 270 251 254 204 194 196 196
220 217 214 213 213 214 215 214 208 206 205 203 208 205 203 234 222 215 239 210 208 200 196 194 196 187 201 189 177 216 220 266 250 238 268 331 285 335 286 240 237 206 200 203 204
217 215 211 208 205 207 207 209 210 208 204 200 197 206 214 220 196 209 224 232 209 204 197 196 192 192 186 139 215 173 137 334 252 232 225 203 278 232 257 267 233 214 205 207 211
214 212 209 208 207 204 206 204 202 204 199 196 196 201 227 233 215 205 207 193 205 200 206 199 199 206 183 187 129 144 144 176 229 176 214 156 256 261 242 241 230 223 212 210 215
213 209 207 203 203 202 203 201 198 196 194 182 188 195 232 219 211 205 213 217 188 202 209 212 211 218 198 142 139 212 195 187 291 198 131 182 245 261 238 226 227 230 223 216 219
211 207 204 199 197 197 193 193 185 184 179 179 191 191 231 206 214 206 202 214 197 188 201 204 198 186 189 182 212 189 209 201 205 212 193 199 239 252 230 226 229 234 231 226 223
209 203 200 195 191 191 182 166 160 173 183 184 194 154 15 212 201 205 200 194 170 177 183 193 202 208 203 206 213 158 179 207 219 179 141 220 237 243 246 240 239 238 237 233 234
204 201 196 191 188 186 183 182 184 197 183 208 167 205 101 80 176 202 202 185 176 200 176 178 219 214 189 209 213 184 189 225 303 165 184 244 252 245 239 245 237 242 242 242 244
199 197 193 187 185 186 190 188 180 144 128 198 221 228 226 234 237 201 195 197 198 198 189 206 218 204 192 192 204 215 210 199 188 105 289 354 272 227 244 240 240 244 249 254 253
191 192 189 183 180 187 192 184 180 145 81 230 193 225 222 196 245 212 205 195 204 209 190 228 217 188 192 202 188 218 162 183 185 129 231 166 282 241 236 239 214 235 237 243 245
186 187 185 184 175 185 186 180 175 159 144 215 168 193 195 190 147 209 208 202 208 200 173 203 194 190 190 203 185 213 161 201 198 186 346 184 269 259 182 251 244 229 236 237 240
183 182 180 179 179 181 178 166 155 147 234 166 145 172 163 199 198 146 186 211 211 205 212 210 224 185 180 140 156 132 109 71 82 128 241 220 205 244 204 227 250 232 237 238 237
177 177 179 173 166 167 165 155 156 208 270 197 176 173 187 188 200 197 191 198 197 215 188 202 194 136 157 142 142 188 177 176 210 209 247 191 197 241 215 238 228 246 250 246 245
172 172 173 174 175 165 155 149 184 203 199 260 157 174 195 171 204 203 192 211 217 194 179 187 190 182 180 190 183 195 198 172 196 194 213 113 236 232 224 249 248 251 255 223 238
165 156 159 166 170 162 151 179 194 192 162 150 94 176 204 196 185 188 211 210 213 199 182 190 211 183 182 181 159 190 202 192 98 25 81 203 279 295 253 260 250 243 236 244 241
146 152 158 165 168 163 161 177 172 169 96 128 170 189 198 189 187 192 197 213 214 208 223 191 175 186 188 124 221 182 178 187 197 158 249 253 282 229 221 225 230 224 227 238 244
139 136 155 162 160 154 184 205 187 186 158 143 182 177 235 184 205 186 215 222 206 212 208 214 216 186 151 201 187 169 189 207 207 166 189 233 248 206 212 219 216 220 223 226 234
134 108 160 159 135 114 157 174 168 163 207 138 144 173 176 172 75 220 215 210 198 201 200 204 205 191 202 161 176 197 204 195 202 210 228 36 272 203 237 205 211 223 218 218 223
108 98 154 156 157 159 118 169 174 155 179 168 192 203 207 174 196 205 245 249 210 193 197 183 217 178 175 216 30 203 211 200 221 73 216 221 252 336 282 244 224 227 214 216 220
118 118 137 159 136 133 143 190 183 198 159 149 178 188 205 221 221 234 239 257 202 203 201 183 203 199 202 200 186 187 199 200 203 220 229 224 238 259 259 236 227 218 201 203 202
98 122 151 175 168 111 129 163 160 192 204 192 215 200 174 230 221 230 232 253 227 204 214 211 208 208 213 202 178 206 206 202 207 222 214 232 225 258 231 214 214 212 197 192 194
113 130 127 106 142 137 181 215 178 258 169 209 216 159 219 232 221 236 195 208 232 197 205 209 191 153 164 176 197 200 199 208 219 231 233 247 249 189 231 220 200 203 195 196 192
107 123 140 139 136 170 211 189 190 167 239 210 191 228 241 242 243 263 254 255 244 241 209 212 169 175 208 184 159 206 197 199 210 220 216 224 231 153 212 208 213 208 202 205 202